This demonstration page uses our WeatherBlox Daily Observations layout. Learn more.

Left ArrowRight Arrow

36.17497, -115.13722

Hourly Observations for December 26, 2018

Temp ( °F °C ) Dew Point ( °F °C ) Humidity (%) Winds ( mph kmh ) Pressure ( in mb ) Visibility ( mi km ) Precip ( " mm )
12:53 am 00:53 Mostly Clear 51 10.6 28 -2.2 41 41 NNW 20 31 29.88 1012 10 16.0934 0 0
1:53 am 01:53 Clear 50 10 28 -2.2 43 43 NNW 18 30 29.9 1013 10 16.0934 0 0
2:53 am 02:53 Clear 50 10 27 -2.8 41 41 NNW 22 35 29.91 1013 10 16.0934 0 0
3:53 am 03:53 Clear 50 10 26 -3.3 39 39 N 17 28 29.92 1013 10 16.0934 0 0
4:53 am 04:53 Clear 49 9.4 26 -3.3 41 41 NNW 17 28 29.94 1014 10 16.0934 0 0
5:53 am 05:53 Clear 49 9.4 26 -3.3 41 41 N 15 24 29.98 1015 10 16.0934 0 0
6:53 am 06:53 Sunny 47 8.3 25 -3.9 42 42 N 12 19 30.01 1016 10 16.0934 0 0
7:53 am 07:53 Sunny 48 8.9 25 -3.9 41 41 N 13 20 30.04 1017 10 16.0934 0 0
8:53 am 08:53 Sunny 51 10.6 23 -5 33 33 NNW 22 35 30.05 1018 10 16.0934 0 0
9:53 am 09:53 Sunny 52 11.1 22 -5.6 31 31 NNW 25 41 30.06 1018 10 16.0934 0 0
10:53 am 10:53 Sunny 53 11.7 21 -6.1 28 28 NNW 21 33 30.03 1017 10 16.0934 0 0
11:53 am 11:53 Sunny 54 12.2 21 -6.1 28 28 N 23 37 30.01 1016 10 16.0934 0 0
12:53 pm 12:53 Sunny 55 12.8 19 -7.2 24 24 NNW 24 39 30 1016 10 16.0934 0 0
1:53 pm 13:53 Sunny 55 12.8 20 -6.7 25 25 NNW 21 33 30.01 1016 10 16.0934 0 0
2:53 pm 14:53 Sunny 55 12.8 19 -7.2 24 24 NNW 15 24 30.02 1017 10 16.0934 0 0
3:53 pm 15:53 Sunny 54 12.2 18 -7.8 24 24 N 15 24 30.01 1016 10 16.0934 0 0
4:53 pm 16:53 Clear 52 11.1 17 -8.3 25 25 NNW 14 22 30.03 1017 10 16.0934 0 0
5:53 pm 17:53 Clear 51 10.6 17 -8.3 26 26 N 13 20 30.04 1017 10 16.0934 0 0
6:53 pm 18:53 Clear 49 9.4 19 -7.2 31 31 N 10 17 30.04 1017 10 16.0934 0 0
7:53 pm 19:53 Clear 49 9.4 20 -6.7 32 32 N 10 17 30.04 1017 10 16.0934 0 0
8:53 pm 20:53 Clear 46 7.8 20 -6.7 35 35 NNE 5 7 30.03 1017 10 16.0934 0 0
9:53 pm 21:53 Clear 46 7.8 19 -7.2 34 34 NW 3 6 30.02 1017 10 16.0934 0 0
10:53 pm 22:53 Clear 44 6.7 17 -8.3 34 34 SE 9 15 30.01 1016 10 16.0934 0 0
11:53 pm 23:53 Clear 43 6.1 20 -6.7 40 40 ENE 3 6 29.99 1016 10 16.0934 0 0

Powered by AerisWeather